Terminal Aerodrome Forecast
Issued by NWS Atlanta, GA

Home | Current Version | Previous Version | Text Only | Print | Product List | Glossary On
Versions: 1 2 3 4 5 6 7 8 9 10 11 12 13 14 15 16 17 18 19 20 21 22 23 24 25 26 27 28 29 30 31 32
000
FTUS42 KFFC 032342
TAFAHN
TAF
KAHN 032342Z 0400/0424 00000KT P6SM BKN100
      TEMPO 0410/0413 4SM BR
     FM041400 04004KT P6SM SCT040 SCT250
     FM041700 05005KT P6SM SCT050 BKN250=

USA.gov is the U.S. government's official web portal to all federal, state and local government web resources and services.